Santa Monica, CA

7:29 AM PST on November 22, 2017 (GMT -0800)
Santa Monica Municipal

Weather History for KSMO - December, 2013

Change the Weather History Date:

Wednesday, December 11, 2013

  Actual Average Record
Temperature  
Mean Temperature 59 °F -  
Max Temperature 72 °F 66 °F 86 °F (1958)
Min Temperature 46 °F 47 °F 33 °F (1949)
Degree Days  
Heating Degree Days 6    
Growing Degree Days 9 (Base 50)    
Moisture  
Dew Point 18 °F    
Average Humidity 23    
Maximum Humidity 62    
Minimum Humidity 8    
Precipitation  
Precipitation 0.00 in - - ()
Sea Level Pressure  
Sea Level Pressure 30.13 in    
Wind  
Wind Speed 3 mph (NNE)    
Max Wind Speed 8 mph    
Max Gust Speed 30 mph    
Visibility 10 miles    
Events      
Averages and records for this station are not official NWS values.
T = Trace of Precipitation, MM = Missing Value Source: NWS Daily Summary

Daily Weather History Graph

Daily Weather History Graph

Search for Another Location

Airport or City:

Trip Planner

Search our weather history database for the weather conditions in past years. The results will help you decide how hot, cold, wet, or windy it might be!

Date:

Astronomy

Dec. 11, 2013 Rise Set
Actual Time 6:49 AM PST 4:45 PM PST
Civil Twilight 6:21 AM PST 5:12 PM PST
Nautical Twilight 5:50 AM PST 5:44 PM PST
Astronomical Twilight 5:20 AM PST 6:14 PM PST
Moon 1:10 PM PST (12/11) 1:27 AM PST (12/11)
Length of Visible Light 10h 51m
Length of Day
9h 55m
Waxing Gibbous, 72% of the Moon is Illuminated
Dec 11
Waxing Gibbous
Dec 17
Full
Dec 25
Last Quarter
Jan 1
New
Jan 7
First Quarter

Hourly Weather History & Observations

Time (PST) Temp. Windchill Dew Point Humidity Pressure Visibility Wind Dir Wind Speed Gust Speed Precip Events Conditions
12:51 AM 53.1 °F - 6.1 °F 15% 30.11 in 10.0 mi Calm Calm - N/A   Clear
1:51 AM 51.1 °F - 8.1 °F 18% 30.11 in 10.0 mi NE 4.6 mph - N/A   Clear
2:51 AM 46.0 °F 43.1 °F 14.0 °F 28% 30.11 in 10.0 mi NNE 5.8 mph - N/A   Clear
3:51 AM 50.0 °F - 10.0 °F 20% 30.10 in 10.0 mi North 3.5 mph - N/A   Clear
4:51 AM 51.1 °F - 8.1 °F 18% 30.11 in 10.0 mi Calm Calm - N/A   Clear
5:51 AM 48.9 °F - 12.0 °F 23% 30.12 in 10.0 mi NE 4.6 mph - N/A   Clear
6:51 AM 46.0 °F 44.8 °F 14.0 °F 28% 30.13 in 10.0 mi NE 3.5 mph - N/A   Clear
7:51 AM 52.0 °F - 16.0 °F 24% 30.15 in 10.0 mi NE 3.5 mph - N/A   Clear
8:51 AM 61.0 °F - 12.9 °F 15% 30.16 in 10.0 mi NNE 3.5 mph - N/A   Clear
9:51 AM 66.0 °F - 10.0 °F 11% 30.17 in 10.0 mi North 4.6 mph - N/A   Clear
10:51 AM 70.0 °F - 10.0 °F 10% 30.15 in 10.0 mi North 4.6 mph - N/A   Clear
11:51 AM 72.0 °F - 8.1 °F 8% 30.14 in 10.0 mi Calm Calm - N/A   Clear
12:51 PM 71.1 °F - 12.9 °F 11% 30.12 in 10.0 mi Variable 3.5 mph - N/A   Clear
1:51 PM 71.1 °F - 15.1 °F 12% 30.10 in 10.0 mi Calm Calm - N/A   Clear
2:51 PM 68.0 °F - 36.0 °F 31% 30.11 in 10.0 mi SSW 8.1 mph - N/A   Clear
3:51 PM 63.0 °F - 39.9 °F 43% 30.12 in 10.0 mi West 5.8 mph 29.9 mph N/A   Clear
4:51 PM 61.0 °F - 42.1 °F 50% 30.13 in 10.0 mi Calm Calm - N/A   Clear
5:51 PM 60.1 °F - 37.0 °F 42% 30.14 in 10.0 mi Calm Calm - N/A   Clear
6:51 PM 61.0 °F - 16.0 °F 17% 30.15 in 10.0 mi Calm Calm - N/A   Clear
7:51 PM 55.9 °F - 43.0 °F 62% 30.15 in 10.0 mi Calm Calm - N/A   Clear
8:51 PM 57.9 °F - 16.0 °F 19% 30.17 in 10.0 mi NNE 5.8 mph - N/A   Clear
9:51 PM 57.0 °F - 15.1 °F 19% 30.17 in 10.0 mi NE 4.6 mph - N/A   Clear
10:51 PM 57.9 °F - 16.0 °F 19% 30.16 in 10.0 mi Calm Calm - N/A   Clear
11:51 PM 57.9 °F - 14.0 °F 18% 30.15 in 10.0 mi NNE 3.5 mph - N/A   Clear